Location: Arbon
(43.0005°N, 0.7472°E)
Time: 15:33:35
(UTC+00:00)

Cosmos 1758 Rocket - Pass Details

Date: 07 August 2020
Orbit: 603 x 635 km, 82.5° (Epoch: 22 September)

Event Time Altitude Azimuth Distance (km) Brightness Sun altitude
Rises 03:26:57 0° 357° (N) 2,866 7.5 -14.5°
Reaches altitude 10° 03:29:14 10° 2° (N) 1,957 6.7 -14.2°
Maximum altitude 03:33:26 49° 78° (ENE) 779 4.5 -13.6°
Drops below altitude 10° 03:37:37 10° 154° (SSE) 1,948 6.0 -12.9°
Sets 03:39:53 0° 160° (SSE) 2,850 6.8 -12.6°
